EW5800 Weather Reports


Display with metric or nautical units.
time (UTC)temp
F
wind
direction
speed
MPH
gust
MPH
rain 1hr
in
rain 24hr
in
rain mn
in
humidity
%
barometer
mb
20260905103056 57 6 0.0 0.0 0.00 0.00 0.00 88 1016.1
20260905101554 57 6 0.0 0.0 0.00 0.00 0.00 88 1016.0
20260905100100 57 5 0.0 0.0 0.00 0.00 0.00 88 1016.1
20260905094552 58 5 0.0 0.0 0.00 0.00 0.00 88 1016.0
20260905093055 58 6 0.0 0.0 0.00 0.00 0.00 86 1016.0
20260905091556 58 6 0.0 0.0 0.00 0.00 0.00 87 1016.1
20260905090051 57 6 0.0 0.0 0.00 0.00 0.00 88 1016.0
20260905084548 57 6 0.0 0.0 0.00 0.00 0.00 89 1016.0
20260905083047 57 6 0.0 0.0 0.00 0.00 0.00 89 1015.9
20260905081545 58 6 0.0 0.0 0.00 0.00 0.00 89 1015.8
20260905080047 58 6 0.0 0.0 0.00 0.00 0.00 88 1015.7
20260905074543 58 6 0.0 0.0 0.00 0.00 0.00 88 1015.7
20260905073041 58 6 0.0 0.0 0.00 0.00 0.00 87 1015.6
20260905071540 58 6 0.0 0.0 0.00 0.00 0.00 87 1015.6
20260905070038 59 6 0.0 0.0 0.00 0.00 0.00 86 1015.5
20260905064536 58 307 0.0 0.0 0.00 0.00 0.00 86 1015.4
20260905063036 59 307 0.0 0.0 0.00 0.00 0.00 86 1015.3
20260905061536 58 307 0.0 0.0 0.00 0.00 0.00 87 1015.3
20260905060034 58 307 0.0 0.0 0.00 0.00 0.00 87 1015.4
20260905054533 58 307 0.0 0.0 0.00 0.00 0.00 88 1015.3
20260905053036 59 307 0.0 0.0 0.00 0.00 0.00 88 1015.2
20260905051532 59 307 0.0 0.0 0.00 0.00 0.00 87 1015.2
20260905050032 59 307 0.0 0.0 0.00 0.00 0.00 87 1015.2
20260905044530 59 307 0.0 0.0 0.00 0.00 0.00 86 1015.3
20260905043029 59 307 0.0 0.0 0.00 0.00 0.00 85 1015.1
20260905041531 59 307 0.0 0.0 0.00 0.00 0.00 86 1015.1
20260905040032 59 307 0.0 0.0 0.00 0.00 0.00 86 1015.0
20260905034532 59 307 0.0 0.0 0.00 0.00 0.00 87 1014.9
20260905033025 60 307 0.0 0.0 0.00 0.00 0.00 86 1014.8
20260905031529 60 307 0.0 0.0 0.00 0.00 0.00 86 1014.7
20260905030029 60 307 0.0 0.0 0.00 0.00 0.00 86 1014.5
20260905024521 61 307 0.0 0.0 0.00 0.00 0.00 85 1014.4
20260905023021 62 307 0.0 0.0 0.00 0.00 0.00 83 1014.4
20260905021526 62 307 0.0 0.0 0.00 0.00 0.00 81 1014.4
20260905020030 63 318 0.0 1.0 0.00 0.00 0.00 80 1014.3
20260905014517 63 318 0.0 2.0 0.00 0.00 0.00 79 1014.2
20260905013028 64 321 0.0 1.0 0.00 0.00 0.00 77 1014.0
20260905011518 64 15 0.0 3.0 0.00 0.00 0.00 75 1014.0
20260905010013 64 312 0.0 1.0 0.00 0.00 0.00 73 1014.0
20260905004514 65 317 0.0 0.0 0.00 0.00 0.00 73 1013.9
20260905003012 65 316 0.0 3.0 0.00 0.00 0.00 71 1013.9
20260905001510 65 320 0.0 4.0 0.00 0.00 0.00 72 1013.7
20260905000011 66 77 0.0 2.0 0.00 0.00 0.00 71 1013.6
20260904234514 66 305 0.0 2.0 0.00 0.00 0.00 71 1013.6
20260904233008 65 11 0.0 2.0 0.00 0.00 0.00 71 1013.7
20260904231508 66 43 0.0 1.0 0.00 0.00 0.00 70 1013.6
20260904230008 65 347 0.0 2.0 0.00 0.00 0.00 70 1013.7
20260904224507 65 289 0.0 3.0 0.00 0.00 0.00 69 1013.7
20260904223007 65 328 0.0 2.0 0.00 0.00 0.00 69 1013.7
20260904221506 66 334 0.0 2.0 0.00 0.00 0.00 68 1013.6
20260904220005 65 56 0.0 1.0 0.00 0.00 0.00 68 1013.6
20260904214503 65 226 0.0 0.0 0.00 0.00 0.00 68 1013.5
20260904213005 65 111 0.0 0.0 0.00 0.00 0.00 70 1013.6
20260904211600 65 111 0.0 0.0 0.00 0.00 0.00 71 1013.5
20260904210100 65 187 0.0 2.0 0.00 0.00 0.00 70 1013.5
20260904204559 65 162 0.0 0.0 0.00 0.00 0.00 68 1013.3
20260904203056 64 193 0.0 0.0 0.00 0.00 0.00 71 1013.2
20260904201553 63 147 0.0 0.0 0.00 0.00 0.00 73 1013.3
20260904200051 62 150 0.0 0.0 0.00 0.00 0.00 75 1013.4
20260904194606 62 191 0.0 0.0 0.00 0.00 0.00 74 1013.5
20260904193049 62 190 0.0 0.0 0.00 0.00 0.00 74 1013.5
20260904191546 61 224 0.0 2.0 0.00 0.00 0.00 76 1013.6
20260904190042 60 72 0.0 1.0 0.00 0.00 0.00 78 1013.6
20260904184540 60 81 0.0 1.0 0.00 0.00 0.00 79 1013.5
20260904183054 60 113 0.0 1.0 0.00 0.00 0.00 80 1013.5
20260904181554 60 220 0.0 1.0 0.00 0.00 0.00 81 1013.3
20260904180039 59 222 0.0 0.0 0.00 0.00 0.00 81 1013.2
20260904174532 59 110 0.0 1.0 0.00 0.01 0.00 83 1013.0
20260904173035 59 48 0.0 1.0 0.00 0.01 0.00 83 1013.1
20260904171530 58 356 0.0 0.0 0.00 0.01 0.00 84 1013.1
20260904170027 58 356 0.0 0.0 0.00 0.01 0.00 85 1013.0
20260904164526 58 356 0.0 0.0 0.00 0.01 0.00 86 1012.8
20260904163022 57 356 0.0 0.0 0.00 0.01 0.00 88 1012.8
20260904161518 56 356 0.0 0.0 0.00 0.01 0.00 91 1012.9
20260904160015 54 356 0.0 0.0 0.00 0.01 0.00 92 1012.7
20260904154515 53 356 0.0 0.0 0.00 0.02 0.00 92 1012.8
20260904153017 53 356 0.0 0.0 0.00 0.02 0.00 92 1012.5
20260904151510 52 356 0.0 0.0 0.00 0.02 0.00 92 1012.4
20260904150008 51 356 0.0 0.0 0.00 0.02 0.00 93 1012.2
20260904144508 51 269 0.0 0.0 0.00 0.02 0.00 93 1012.0
20260904143006 50 269 0.0 0.0 0.00 0.02 0.00 92 1012.1
20260904141508 50 269 0.0 0.0 0.00 0.02 0.00 92 1012.1
20260904140003 50 269 0.0 0.0 0.00 0.02 0.00 92 1011.8
20260904134502 50 269 0.0 0.0 0.00 0.02 0.00 92 1011.7
20260904133001 50 269 0.0 0.0 0.00 0.02 0.00 92 1011.5
20260904131606 50 269 0.0 0.0 0.00 0.02 0.00 92 1011.4
20260904130057 50 269 0.0 0.0 0.00 0.02 0.00 92 1011.1
20260904124601 50 269 0.0 0.0 0.00 0.02 0.00 92 1011.1
20260904123056 49 269 0.0 0.0 0.00 0.02 0.00 92 1010.9
20260904121552 49 269 0.0 0.0 0.00 0.02 0.00 92 1010.7
20260904120052 49 269 0.0 0.0 0.00 0.02 0.00 92 1010.5
20260904114549 49 269 0.0 0.0 0.00 0.02 0.00 92 1010.4
20260904113048 49 269 0.0 0.0 0.00 0.02 0.00 92 1010.4
20260904111553 50 269 0.0 0.0 0.00 0.02 0.00 92 1010.2
20260904110044 50 269 0.0 0.0 0.00 0.02 0.00 92 1010.2
20260904104551 50 269 0.0 0.0 0.00 0.02 0.00 92 1010.2